Погода в Песоченском

Россия / Тульская область     54°10′30″N   36°06′18″E
темп.,
°C
ветер,
м/с
пор.,
м/с
влажн.,
%
обл.,
%
осадки,
мм/ч
давл.,
гПа
погр.,
м
12 мая, ср
ср1200:00+10юв35955 0.0 102590
03:00+7ююв23930 0.0 102638
06:00+7вюв22870 0.0 102651
09:00+12в34714 0.0 1026630
12:00+14всв4657100 0.0 10231256
15:00+9в1295100 2.1 1021160
18:00+9ююв1297100 3.8 1019153
21:00+7юв36974 4.4 1019144
13 мая, чт
чт1300:00+6в38965 0.0 1019159
03:00+6в412955 0.0 1018276
06:00+9вюв61392100 0.1 1017527
09:00+12юв6128394 0.2 1017991
12:00+11вюв51093100 0.4 1016495
15:00+11ю61089100 3.7 1015819
18:00+10ю468913 7.8 1014392
21:00+8ююв34934 7.8 101651
14 мая, пт
пт1400:00+7ююв229026 0.0 101617
03:00+6юв3393100 0.0 101744
06:00+8вюв3793100 0.0 1017166
09:00+13вюв4781100 0.0 1016351
12:00+18юв687489 0.1 1014973
15:00+21юв6971100 1.4 10121192
18:00+19ююв61180100 4.8 1010391
21:00+15ююв3493100 7.2 101050
15 мая, сб
сб1500:00+15ююв2291100 1.2 101033
03:00+14ююв3595100 2.0 101097
06:00+14юв3109827 1.7 1009330
09:00+17ююв5786100 2.3 1009605
12:00+20ю457114 0.3 10081067
15:00+21ююз676891 2.3 10081279
18:00+18юз4779100 1.3 1009345
21:00+14юз3689100 1.9 1010121
16 мая, вс
вс1600:00+12юз41094100 0.0 1011233
03:00+10юз410952 0.0 1013260
06:00+10юз39940 0.0 1014264
09:00+14юз46804 0.0 1015605
12:00+18зюз566661 0.0 10151321
15:00+19з456054 0.1 10151540
18:00+19сз2371100 0.0 1015274
21:00+14с2282100 0.0 101611